Location: Unspecified
(43.3830°N, 0.0000°E)
Time: 09:42:43
(UTC+00:00)

N. Korean satellite - Pass Details

Date: 28 November 2020
Orbit: 453 x 502 km, 97.2° (Epoch: 16 January)

Event Time Altitude Azimuth Distance (km) Brightness Sun altitude
Rises 17:38:49 0° 207° (SSW) 2,453 10.9 -12.9°
Maximum altitude 17:43:32 15° 268° (W) 1,336 10.0 -13.7°
Drops below altitude 10° 17:45:32 10° 304° (WNW) 1,605 9.8 -14.1°
Sets 17:48:19 0° 329° (NNW) 2,494 10.4 -14.6°
